| time (UTC) | temp F | wind direction | speed knots | gust knots | rain 1hr in | rain 24hr in | rain mn in | humidity % | barometer mb |
| 20260505090832 | 71 | 224 | 0.0 | 0.0 | 0.00 | 0.00 | 0.00 | 36 | 885.4 |
| 20260505085623 | 71 | 224 | 0.0 | 0.0 | 0.00 | 0.00 | 0.00 | 36 | 885.5 |
| 20260505084453 | 71 | 224 | 0.0 | 0.0 | 0.00 | 0.00 | 0.00 | 37 | 885.5 |
| 20260505084414 | 71 | 224 | 0.0 | 0.0 | 0.00 | 0.00 | 0.00 | 37 | 885.5 |
| 20260505083237 | 71 | 224 | 0.0 | 0.0 | 0.00 | 0.00 | 0.00 | 37 | 885.6 |
| 20260505083205 | 71 | 224 | 0.0 | 0.0 | 0.00 | 0.00 | 0.00 | 37 | 885.6 |
| 20260505081956 | 71 | 224 | 0.0 | 0.0 | 0.00 | 0.00 | 0.00 | 38 | 885.8 |
| 20260505080747 | 70 | 218 | 0.0 | 0.0 | 0.00 | 0.00 | 0.00 | 38 | 885.7 |
| 20260505075538 | 70 | 224 | 0.0 | 0.0 | 0.00 | 0.00 | 0.00 | 39 | 885.9 |
| 20260505074329 | 70 | 180 | 0.0 | 0.0 | 0.00 | 0.00 | 0.00 | 40 | 885.9 |
| 20260505073120 | 70 | 264 | 0.0 | 0.0 | 0.00 | 0.00 | 0.00 | 40 | 886.2 |
| 20260505071911 | 69 | 179 | 0.0 | 0.0 | 0.00 | 0.00 | 0.00 | 41 | 886.2 |
| 20260505070703 | 69 | 224 | 0.0 | 0.0 | 0.00 | 0.00 | 0.00 | 41 | 886.3 |
| 20260505065454 | 69 | 217 | 0.0 | 0.0 | 0.00 | 0.00 | 0.00 | 41 | 886.5 |
| 20260505064244 | 69 | 180 | 0.0 | 0.0 | 0.00 | 0.00 | 0.00 | 41 | 886.5 |
| 20260505063035 | 69 | 356 | 0.0 | 0.0 | 0.00 | 0.00 | 0.00 | 41 | 886.4 |
| 20260505061826 | 69 | 87 | 0.0 | 0.0 | 0.00 | 0.00 | 0.00 | 41 | 886.6 |
| 20260505060617 | 69 | 134 | 0.0 | 0.0 | 0.00 | 0.00 | 0.00 | 40 | 886.8 |
| 20260505055408 | 70 | 87 | 0.0 | 0.0 | 0.00 | 0.00 | 0.00 | 39 | 886.9 |
| 20260505054159 | 70 | 70 | 0.0 | 0.0 | 0.00 | 0.00 | 0.00 | 39 | 887.0 |
| 20260505052950 | 70 | 48 | 0.0 | 0.0 | 0.00 | 0.00 | 0.00 | 38 | 887.2 |
| 20260505051741 | 70 | 94 | 0.0 | 0.0 | 0.00 | 0.00 | 0.00 | 38 | 887.2 |
| 20260505050532 | 71 | 104 | 0.0 | 0.0 | 0.00 | 0.00 | 0.00 | 37 | 887.1 |
| 20260505041656 | 72 | 121 | 0.0 | 0.0 | 0.00 | 0.00 | 0.00 | 34 | 887.1 |
| 20260505040446 | 72 | 136 | 0.0 | 0.0 | 0.00 | 0.00 | 0.00 | 33 | 887.2 |
| 20260505035238 | 72 | 146 | 0.0 | 0.0 | 0.00 | 0.00 | 0.00 | 33 | 887.3 |
| 20260505034029 | 73 | 152 | 0.0 | 0.0 | 0.00 | 0.00 | 0.00 | 32 | 887.5 |
| 20260505032819 | 73 | 139 | 0.0 | 0.0 | 0.00 | 0.00 | 0.00 | 31 | 886.9 |
| 20260505031610 | 73 | 125 | 0.0 | 0.0 | 0.00 | 0.00 | 0.00 | 30 | 886.9 |
| 20260505030401 | 74 | 128 | 0.0 | 0.0 | 0.00 | 0.00 | 0.00 | 29 | 887.0 |
| 20260505025152 | 74 | 159 | 0.0 | 0.0 | 0.00 | 0.00 | 0.00 | 29 | 887.1 |
| 20260505023943 | 74 | 141 | 0.0 | 0.0 | 0.00 | 0.00 | 0.00 | 28 | 886.9 |
| 20260505022734 | 75 | 138 | 0.0 | 0.0 | 0.00 | 0.00 | 0.00 | 27 | 886.9 |
| 20260505021525 | 75 | 132 | 0.0 | 0.0 | 0.00 | 0.00 | 0.00 | 26 | 886.6 |
| 20260505020319 | 76 | 104 | 0.0 | 0.0 | 0.00 | 0.00 | 0.00 | 25 | 887.0 |
| 20260505020316 | 76 | 104 | 0.0 | 0.0 | 0.00 | 0.00 | 0.00 | 25 | 887.0 |
| 20260505015107 | 76 | 114 | 0.0 | 0.0 | 0.00 | 0.00 | 0.00 | 24 | 886.7 |
| 20260505013858 | 77 | 124 | 0.0 | 0.0 | 0.00 | 0.00 | 0.00 | 23 | 886.4 |
| 20260505012649 | 77 | 96 | 0.0 | 0.0 | 0.00 | 0.00 | 0.00 | 22 | 886.6 |
| 20260505011440 | 78 | 187 | 0.0 | 0.0 | 0.00 | 0.00 | 0.00 | 21 | 886.5 |
| 20260505010231 | 79 | 121 | 0.0 | 0.0 | 0.00 | 0.00 | 0.00 | 20 | 886.6 |
| 20260505005022 | 79 | 148 | 0.0 | 0.0 | 0.00 | 0.00 | 0.00 | 19 | 886.5 |
| 20260505001355 | 82 | 108 | 0.0 | 0.0 | 0.00 | 0.00 | 0.00 | 17 | 886.5 |
| 20260505000146 | 82 | 125 | 0.0 | 0.0 | 0.00 | 0.00 | 0.00 | 16 | 886.4 |
| 20260504234937 | 83 | 145 | 0.0 | 0.0 | 0.00 | 0.00 | 0.00 | 15 | 886.4 |
| 20260504233728 | 84 | 125 | 0.0 | 0.0 | 0.00 | 0.00 | 0.00 | 14 | 886.6 |
| 20260504232519 | 85 | 80 | 0.0 | 0.0 | 0.00 | 0.00 | 0.00 | 12 | 886.4 |
| 20260504231310 | 87 | 111 | 0.0 | 0.0 | 0.00 | 0.00 | 0.00 | 11 | 886.5 |
| 20260504230101 | 88 | 125 | 0.0 | 0.0 | 0.00 | 0.00 | 0.00 | 11 | 886.5 |
| 20260504224852 | 88 | 158 | 0.0 | 0.0 | 0.00 | 0.00 | 0.00 | 10 | 886.4 |
| 20260504223643 | 89 | 139 | 0.0 | 0.0 | 0.00 | 0.00 | 0.00 | 9 | 886.4 |
| 20260504222434 | 89 | 121 | 0.0 | 0.0 | 0.00 | 0.00 | 0.00 | 9 | 886.4 |
| 20260504221225 | 89 | 86 | 0.0 | 0.0 | 0.00 | 0.00 | 0.00 | 9 | 886.6 |
| 20260504220016 | 90 | 181 | 0.0 | 0.0 | 0.00 | 0.00 | 0.00 | 8 | 886.6 |
| 20260504214807 | 90 | 25 | 0.0 | 0.0 | 0.00 | 0.00 | 0.00 | 8 | 886.7 |
| 20260504213558 | 90 | 136 | 0.0 | 0.0 | 0.00 | 0.00 | 0.00 | 8 | 886.7 |
| 20260504212349 | 90 | 169 | 0.0 | 0.0 | 0.00 | 0.00 | 0.00 | 8 | 886.9 |
| 20260504211140 | 91 | 135 | 0.0 | 0.0 | 0.00 | 0.00 | 0.00 | 7 | 887.5 |
| 20260504205931 | 92 | 170 | 0.0 | 0.0 | 0.00 | 0.00 | 0.00 | 8 | 887.1 |
| 20260504204722 | 92 | 136 | 0.0 | 0.0 | 0.00 | 0.00 | 0.00 | 8 | 887.3 |
| 20260504203513 | 92 | 186 | 0.0 | 0.0 | 0.00 | 0.00 | 0.00 | 8 | 887.8 |
| 20260504202305 | 92 | 183 | 0.0 | 0.0 | 0.00 | 0.00 | 0.00 | 9 | 887.9 |
| 20260504201055 | 91 | 143 | 0.0 | 0.0 | 0.00 | 0.00 | 0.00 | 10 | 887.9 |
| 20260504195846 | 91 | 37 | 0.0 | 0.0 | 0.00 | 0.00 | 0.00 | 10 | 888.0 |
| 20260504194637 | 91 | 113 | 0.0 | 0.0 | 0.00 | 0.00 | 0.00 | 11 | 888.3 |
| 20260504193428 | 90 | 156 | 0.0 | 0.0 | 0.00 | 0.00 | 0.00 | 12 | 888.2 |
| 20260504192219 | 89 | 180 | 0.0 | 0.0 | 0.00 | 0.00 | 0.00 | 13 | 888.3 |
| 20260504191010 | 89 | 159 | 0.0 | 0.0 | 0.00 | 0.00 | 0.00 | 13 | 888.5 |
| 20260504185800 | 88 | 134 | 0.0 | 0.0 | 0.00 | 0.00 | 0.00 | 15 | 888.6 |
| 20260504184551 | 86 | 186 | 0.0 | 0.0 | 0.00 | 0.00 | 0.00 | 16 | 888.7 |
| 20260504183343 | 85 | 127 | 0.0 | 0.0 | 0.00 | 0.00 | 0.00 | 17 | 888.7 |
| 20260504182133 | 84 | 217 | 0.0 | 0.0 | 0.00 | 0.00 | 0.00 | 18 | 889.0 |
| 20260504180924 | 83 | 233 | 0.0 | 0.0 | 0.00 | 0.00 | 0.00 | 19 | 889.2 |
| 20260504175715 | 82 | 212 | 0.0 | 0.0 | 0.00 | 0.00 | 0.00 | 20 | 889.1 |
| 20260504174506 | 82 | 176 | 0.0 | 0.0 | 0.00 | 0.00 | 0.00 | 20 | 889.2 |
| 20260504173257 | 82 | 169 | 0.0 | 0.0 | 0.00 | 0.00 | 0.00 | 21 | 889.2 |
| 20260504172048 | 82 | 173 | 0.0 | 0.0 | 0.00 | 0.00 | 0.00 | 21 | 889.5 |
| 20260504170839 | 82 | 172 | 0.0 | 0.0 | 0.00 | 0.00 | 0.00 | 22 | 889.6 |
| 20260504150709 | 71 | 197 | 0.0 | 0.0 | 0.00 | 0.00 | 0.00 | 36 | 889.5 |
| 20260504140624 | 66 | 233 | 0.0 | 0.0 | 0.00 | 0.00 | 0.00 | 41 | 889.4 |
| 20260504130539 | 63 | 207 | 0.0 | 0.0 | 0.00 | 0.00 | 0.00 | 44 | 888.9 |
| 20260504110409 | 63 | 214 | 0.0 | 0.0 | 0.00 | 0.00 | 0.00 | 44 | 888.3 |
| 20260504100324 | 63 | 205 | 0.0 | 0.0 | 0.00 | 0.00 | 0.00 | 45 | 888.3 |